Location: Unspecified
(0.0000°N, 0.0000°E)
Time: 23:57:24
(UTC+00:00)

Hubble Space Telescope - Pass Details

Date: 15 July 2019
Orbit: 536 x 540 km, 28.5° (Epoch: 17 November)

Event Time Altitude Azimuth Distance (km) Brightness Sun altitude
Rises 19:28:38 0° 283° (WNW) 2,671 5.9 -19.2°
Reaches altitude 10° 19:31:05 10° 272° (W) 1,783 4.4 -19.7°
Maximum altitude 19:34:44 30° 209° (SSW) 970 2.1 -20.6°
Enters shadow 19:35:35 28° 186° (S) 1,030 2.0 -20.8°
